This is the latest recevied weather packets stored in our database for station/object DL5TW-13. If no packets are shown the sender has not sent any weather packets the latest 10 day(s).
| Time | Temp. | Humidity | Pressure | Rain* | Wind** | Luminosity | Snow |
|---|---|---|---|---|---|---|---|
| 1778014828 | 12.22° C | 90% | 1001.9 hPa | 5.08 mm | - | - | - |
| 1778014527 | 12.22° C | 90% | 1001.9 hPa | 10.16 mm | - | - | - |
| 1778014227 | 12.22° C | 90% | 1001.9 hPa | 14.48 mm | - | - | - |
| 1778013927 | 12.22° C | 89% | 1001.8 hPa | 17.02 mm | - | - | - |
| 1778013626 | 12.22° C | 89% | 1001.7 hPa | 18.03 mm | - | - | - |
| 1778013326 | 12.78° C | 89% | 1001.6 hPa | 19.56 mm | - | - | - |
| 1778013026 | 12.78° C | 89% | 1001.5 hPa | 19.05 mm | - | - | - |
| 1778012726 | 12.78° C | 89% | 1001.4 hPa | 19.05 mm | - | - | - |
| 1778012425 | 12.78° C | 88% | 1001.5 hPa | 19.05 mm | - | - | - |
| 1778012125 | 12.78° C | 88% | 1001.5 hPa | 20.57 mm | - | - | - |
| 1778011825 | 12.78° C | 88% | 1001.5 hPa | 19.05 mm | - | - | - |
| 1778011524 | 12.78° C | 88% | 1001.6 hPa | 18.54 mm | - | - | - |
| 1778011224 | 13.33° C | 88% | 1001.5 hPa | 17.53 mm | - | - | - |
| 1778010924 | 13.33° C | 88% | 1001.8 hPa | 11.18 mm | - | - | - |
| 1778010624 | 13.33° C | 88% | 1001.7 hPa | 7.62 mm | - | - | - |
| 1778010323 | 13.33° C | 88% | 1001.7 hPa | 5.08 mm | - | - | - |
| 1778010023 | 13.89° C | 87% | 1001.7 hPa | 3.56 mm | - | - | - |
| 1778009723 | 13.89° C | 87% | 1001.6 hPa | 3.05 mm | - | - | - |
| 1778009422 | 13.89° C | 87% | 1001.7 hPa | 2.54 mm | - | - | - |
| 1778009122 | 13.89° C | 87% | 1001.7 hPa | 2.54 mm | - | - | - |
| 1778008822 | 13.89° C | 86% | 1001.7 hPa | 1.02 mm | - | - | - |
| 1778008522 | 13.89° C | 86% | 1001.9 hPa | 1.02 mm | - | - | - |
| 1778008221 | 13.89° C | 86% | 1001.9 hPa | 1.02 mm | - | - | - |
| 1778007921 | 13.89° C | 86% | 1001.8 hPa | 1.02 mm | - | - | - |
| 1778007621 | 13.89° C | 86% | 1001.9 hPa | 1.02 mm | - | - | - |
* Rain latest hour (hover to see other rain measurements)
** Current wind speed in m/s (hover to see current wind gust speed)